[[{"header":{"parameterUnit":"m.s-1","parameterCategory":1,"la1":30.2991,"la2":30.254,"lo1":-89.0895,"lo2":-89.0444,"dy":0.0017,"dx":0.0017,"nx":28,"ny":28,"refTime":"2025-05-22T03:00:00:Z","depth":0,"parameterNumber":2,"parameterNumberName":"U-component_of_WINDS"},"data":[0,0,0,0,0,0,0,0,0,0,0,0,0,0,0,0,0,0,0,0,0,0,0,0,0,0,0,0,0,0,0,0,0,0,0,0,0,0,0,0,0,0,0,0,0,0,0,0,0,0,0,0,0,0,0,0,0,0,0.8673,0.8673,0,0.8657,0.8657,0.8657,0.8599,0.8598,0.8596,0.8595,0.8581,0.8582,0.8583,0,0,0,0,0,0,0,0,0,0,0,0,0,0.8655,0.8655,0.8673,0.8673,0.8673,0.8657,0.8657,0.8657,0.8599,0.8598,0.8596,0.8594,0.8581,0.8582,0.8583,0,0,0,0,0,0,0,0,0,0,0,0,0,0.8653,0.8655,0.8673,0.8642,0.8639,0.8657,0.8657,0.8657,0.8599,0.8597,0.8595,0.8594,0.858,0.8582,0.8583,0.8631,0,0,0.8587,0.8587,0,0,0,0,0,0,0,0,0.8653,0.8654,0.8647,0.8644,0.8641,0.8628,0.8645,0.8648,0.86,0.8615,0.8595,0.8593,0.8598,0.8598,0.8599,0.863,0.8629,0.8587,0.8588,0.8588,0.8589,0,0,0,0,0,0,0,0.8654,0.8654,0.8667,0.8647,0.8643,0.8629,0.8627,0.8646,0.8618,0.8613,0.8609,0.8608,0.8596,0.8598,0.8599,0.8629,0.8587,0.8588,0.8589,0.8589,0.8698,0.87,0,0,0,0,0,0,0.8658,0.8655,0.8667,0.8666,0.8642,0.8631,0.8628,0.8634,0.8617,0.8613,0.8609,0.8605,0.8597,0.8597,0.8598,0.8653,0.8588,0.8589,0.859,0.8696,0.8698,0.8701,0,0,0,0,0,0,0.8658,0.8659,0.8668,0.8659,0.8659,0.8634,0.864,0.8635,0.8637,0.8615,0.861,0.8616,0.8596,0.8596,0.8623,0.8652,0.859,0.8591,0.8693,0.8697,0.8699,0.8763,0,0,0,0,0,0,0.8657,0.866,0.8677,0.866,0.866,0.8693,0.8642,0.8636,0.8639,0.8633,0.862,0.8616,0.8594,0.8621,0.8624,0.8652,0.8592,0.8691,0.8695,0.8698,0.8758,0.8768,0.8776,0,0,0,0,0,0.8657,0.8696,0.8679,0.868,0.8681,0.8694,0.8694,0.8668,0.8641,0.8659,0.8645,0.8616,0.8648,0.8624,0.8627,0.8656,0.8689,0.8694,0.8698,0.8754,0.8766,0.8776,0,0,0,0,0,0,0.8719,0.8694,0.8674,0.8708,0.8704,0.8685,0.8706,0.8681,0.8685,0.8679,0.8647,0.8644,0.8676,0.8668,0.8643,0.8701,0.8663,0.8669,0.8705,0.8716,0.8725,0.8726,0.8593,0,0,0,0,0,0.8736,0.8748,0.8726,0.8759,0.8758,0.8732,0.8737,0.8717,0.8711,0.8709,0.8697,0.8693,0.8702,0.8708,0.8715,0.8757,0.8753,0.8778,0.8787,0.8794,0.88,0.8821,0.8832,0.8716,0.8716,0.8716,0,0,0.8773,0.8761,0.877,0.8771,0.8765,0.8779,0.8731,0.8748,0.8758,0.8712,0.8736,0.8727,0.872,0.8754,0.8769,0.8749,0.8831,0.88,0.8807,0.8808,0.8827,0.8838,0.8848,0.8719,0.8719,0.8718,0,0,0.8847,0.8839,0.8865,0.886,0.8851,0.8834,0.884,0.8825,0.8816,0.884,0.8806,0.8817,0.8833,0.883,0.8831,0.8903,0.8877,0.8906,0.8953,0.8974,0.8983,0.8991,0.9017,0.9027,0.8911,0.8911,0.8911,0,0.8894,0.8912,0.8882,0.8901,0.8902,0.886,0.8887,0.8884,0.8878,0.888,0.8858,0.8877,0.887,0.8903,0.892,0.8922,0.8928,0.8907,0.8984,0.8992,0.8999,0.9023,0.9033,0.8915,0.8914,0.8914,0.8914,0,0.8971,0.8984,0.9007,0.9001,0.9005,0.9028,0.9002,0.9009,0.8989,0.8974,0.8999,0.8988,0.8992,0.8998,0.8979,0.9028,0.9017,0.899,0.8951,0.9014,0.9037,0.9046,0.892,0.8919,0.8918,0.8917,0,0,0.9084,0.9061,0.907,0.9067,0.9053,0.9064,0.9085,0.9088,0.9095,0.9092,0.9109,0.9124,0.9099,0.9099,0.9079,0.9097,0.9155,0.9068,0.9068,0.9085,0.921,0.923,0.9241,0.9138,0.9139,0.9141,0.921,0,0.9154,0.9188,0.9161,0.92,0.9212,0.9172,0.919,0.9185,0.9171,0.918,0.9166,0.9176,0.9143,0.9143,0.9159,0.9145,0.918,0.9139,0.9154,0.9155,0.9157,0.9253,0.9275,0.9341,0.9219,0.922,0.9221,0,0.9241,0.9242,0.9282,0.9265,0.927,0.9286,0.9287,0.9296,0.9288,0.9277,0.9278,0.9252,0.9272,0.9234,0.9261,0.9234,0.9238,0.9232,0.9234,0.9235,0.9192,0.9257,0.9361,0.9372,0.9235,0.9234,0.9233,0,0.932,0.9331,0.9356,0.9355,0.9336,0.9349,0.9342,0.9333,0.9336,0.9337,0.9339,0.9342,0.9344,0.9348,0.9324,0.9298,0.9354,0.9314,0.9346,0.9347,0.936,0.936,0.9468,0.9363,0.9362,0.9362,0.9362,0,0.9402,0.9428,0.9391,0.9407,0.9435,0.9404,0.9432,0.9421,0.9413,0.9426,0.9392,0.9405,0.9373,0.9383,0.9364,0.939,0.9391,0.9383,0.9378,0.9386,0.9387,0.9389,0.9384,0.9365,0.9364,0.9364,0.9363,0,0.9496,0.9472,0.9496,0.9477,0.9472,0.9494,0.9477,0.9491,0.9475,0.9492,0.9494,0.947,0.948,0.9456,0.9463,0.945,0.9486,0.9474,0.9489,0.9485,0.9519,0.9516,0.9632,0.9646,0.9532,0.9533,0.9534,0,0.955,0.9569,0.9551,0.9556,0.9551,0.9561,0.9564,0.9534,0.9539,0.9532,0.9547,0.9553,0.9557,0.9575,0.9558,0.9563,0.955,0.9591,0.9551,0.9559,0.9551,0.9551,0.9553,0.9599,0.96,0.9602,0.9602,0,0.9649,0.9635,0.9641,0.9642,0.9646,0.9646,0.9643,0.965,0.9618,0.9625,0.9634,0.9637,0.9644,0.9651,0.9652,0.9645,0.9619,0.9615,0.9623,0.9632,0.964,0.9636,0.9512,0.9613,0.9612,0.9611,0.961,0.961,0.9724,0.9739,0.9728,0.9735,0.973,0.9728,0.974,0.9725,0.9732,0.9734,0.9716,0.9729,0.9721,0.9719,0.9715,0.9726,0.9707,0.9719,0.9722,0.9725,0.9731,0.9638,0.9726,0.9725,0.9725,0.9725,0.9725,0,0.9821,0.9812,0.9819,0.9816,0.9821,0.9794,0.979,0.9797,0.9808,0.9803,0.9807,0.9817,0.9824,0.9808,0.9812,0.9823,0.9811,0.9826,0.9825,0.9824,0.9747,0.974,0.9835,0.9835,0.9835,0.9835,0.9835,0.9835,0.9872,0.9896,0.9882,0.9902,0.9893,0.9905,0.9905,0.9903,0.9898,0.9911,0.9916,0.9905,0.9895,0.9898,0.9903,0.9898,0.9902,0.992,0.9911,0.984,0.9829,0.9819,0.9812,0.9921,0.9921,0.9987,0.9988,0.9989]},{"header":{"parameterUnit":"m.s-1","parameterCategory":1,"la1":30.2991,"la2":30.254,"lo1":-89.0895,"lo2":-89.0444,"dy":0.0017,"dx":0.0017,"nx":28,"ny":28,"refTime":"2025-05-22T03:00:00:Z","depth":0,"parameterNumber":3,"parameterNumberName":"V-component_of_WINDS"},"data":[0,0,0,0,0,0,0,0,0,0,0,0,0,0,0,0,0,0,0,0,0,0,0,0,0,0,0,0,0,0,0,0,0,0,0,0,0,0,0,0,0,0,0,0,0,0,0,0,0,0,0,0,0,0,0,0,0,0,-0.5409,-0.5408,0,-0.5382,-0.5381,-0.5381,-0.5388,-0.5389,-0.5389,-0.539,-0.536,-0.5359,-0.5358,0,0,0,0,0,0,0,0,0,0,0,0,0,-0.5465,-0.5464,-0.5409,-0.5408,-0.5408,-0.5382,-0.5381,-0.5381,-0.5388,-0.5389,-0.539,-0.539,-0.5361,-0.5359,-0.5358,0,0,0,0,0,0,0,0,0,0,0,0,0,-0.5439,-0.5463,-0.5409,-0.5409,-0.5408,-0.5382,-0.5381,-0.5381,-0.5388,-0.5389,-0.539,-0.5391,-0.5361,-0.5359,-0.5357,-0.5329,0,0,-0.5351,-0.5351,0,0,0,0,0,0,0,0,-0.5441,-0.5437,-0.5409,-0.5408,-0.5408,-0.5389,-0.539,-0.5363,-0.5388,-0.5396,-0.539,-0.5391,-0.5369,-0.5367,-0.536,-0.5327,-0.5326,-0.5351,-0.535,-0.5349,-0.5349,0,0,0,0,0,0,0,-0.5442,-0.5438,-0.5398,-0.5408,-0.5408,-0.5409,-0.5406,-0.5385,-0.5378,-0.5395,-0.5396,-0.5392,-0.5369,-0.5361,-0.5359,-0.5326,-0.5351,-0.535,-0.5348,-0.5348,-0.5268,-0.5267,0,0,0,0,0,0,-0.5445,-0.544,-0.5399,-0.5397,-0.5427,-0.5407,-0.5404,-0.5394,-0.5378,-0.5377,-0.5392,-0.5393,-0.5364,-0.5361,-0.5358,-0.5323,-0.5349,-0.5347,-0.5346,-0.5269,-0.5268,-0.5267,0,0,0,0,0,0,-0.5446,-0.5441,-0.54,-0.5419,-0.5413,-0.5406,-0.5394,-0.5393,-0.5386,-0.5376,-0.5374,-0.5385,-0.5365,-0.5361,-0.5336,-0.5322,-0.5347,-0.5345,-0.527,-0.5268,-0.5267,-0.5252,0,0,0,0,0,0,-0.5448,-0.5441,-0.5431,-0.5418,-0.5412,-0.5379,-0.5393,-0.5392,-0.5383,-0.5384,-0.5369,-0.5368,-0.5365,-0.5339,-0.5334,-0.5319,-0.5343,-0.5271,-0.5269,-0.5268,-0.5254,-0.525,-0.5248,0,0,0,0,0,-0.545,-0.5427,-0.543,-0.5425,-0.5399,-0.5378,-0.5374,-0.5373,-0.5382,-0.537,-0.5364,-0.5368,-0.5324,-0.5336,-0.5331,-0.5316,-0.5272,-0.527,-0.5268,-0.5255,-0.5251,-0.5248,0,0,0,0,0,0,-0.5438,-0.5426,-0.5429,-0.5402,-0.5391,-0.5379,-0.5365,-0.5368,-0.5354,-0.5355,-0.5353,-0.535,-0.5324,-0.5318,-0.5331,-0.5287,-0.5299,-0.5296,-0.5292,-0.5288,-0.5285,-0.5286,-0.5342,0,0,0,0,0,-0.5432,-0.5417,-0.5407,-0.5384,-0.5379,-0.5373,-0.5364,-0.5363,-0.5351,-0.5346,-0.5338,-0.5326,-0.5309,-0.5298,-0.5283,-0.5253,-0.525,-0.524,-0.5237,-0.5234,-0.5231,-0.5215,-0.521,-0.526,-0.526,-0.526,0,0,-0.542,-0.5412,-0.5402,-0.5382,-0.5373,-0.5356,-0.5369,-0.5351,-0.5338,-0.5343,-0.5319,-0.5313,-0.5299,-0.5272,-0.5259,-0.5265,-0.5217,-0.5232,-0.523,-0.5228,-0.5212,-0.5207,-0.5203,-0.5258,-0.5258,-0.5259,0,0,-0.539,-0.5383,-0.5363,-0.5354,-0.5341,-0.5337,-0.5332,-0.532,-0.5316,-0.5292,-0.5296,-0.5281,-0.5252,-0.5242,-0.5233,-0.5199,-0.5202,-0.5194,-0.5177,-0.5161,-0.5157,-0.5153,-0.514,-0.5135,-0.5191,-0.5191,-0.5191,0,-0.5377,-0.5352,-0.5352,-0.5333,-0.5324,-0.5329,-0.5308,-0.5299,-0.5282,-0.5275,-0.5282,-0.5246,-0.5237,-0.5207,-0.5199,-0.5192,-0.5186,-0.5195,-0.5157,-0.5154,-0.5151,-0.5138,-0.5133,-0.519,-0.519,-0.519,-0.519,0,-0.5336,-0.5319,-0.5304,-0.5287,-0.5276,-0.5257,-0.5253,-0.5242,-0.5242,-0.5238,-0.5213,-0.5203,-0.5185,-0.5178,-0.5178,-0.5147,-0.5152,-0.5158,-0.5171,-0.5145,-0.5133,-0.5128,-0.5189,-0.5189,-0.5189,-0.519,0,0,-0.5296,-0.528,-0.5275,-0.5267,-0.5253,-0.5239,-0.522,-0.5203,-0.5193,-0.5181,-0.5164,-0.514,-0.5146,-0.5136,-0.5135,-0.5121,-0.5093,-0.5129,-0.5128,-0.5122,-0.5058,-0.5052,-0.5047,-0.5096,-0.5095,-0.5094,-0.5059,0,-0.5264,-0.523,-0.523,-0.5198,-0.5182,-0.5187,-0.517,-0.5159,-0.5154,-0.5139,-0.5134,-0.5116,-0.5126,-0.512,-0.5106,-0.5099,-0.508,-0.5102,-0.5079,-0.5078,-0.5081,-0.5041,-0.5035,-0.5002,-0.5054,-0.5054,-0.5053,0,-0.5222,-0.5208,-0.5176,-0.5164,-0.5157,-0.5142,-0.5126,-0.5112,-0.5099,-0.5097,-0.5086,-0.5087,-0.5066,-0.508,-0.5051,-0.5066,-0.5057,-0.5052,-0.5051,-0.5047,-0.5063,-0.5036,-0.4992,-0.4986,-0.5046,-0.5046,-0.5047,0,-0.5195,-0.5169,-0.5146,-0.5139,-0.5125,-0.5114,-0.5108,-0.5097,-0.5086,-0.5072,-0.5065,-0.5049,-0.504,-0.5027,-0.5023,-0.5034,-0.4994,-0.5008,-0.499,-0.499,-0.4981,-0.4981,-0.4934,-0.4976,-0.4977,-0.4977,-0.4977,0,-0.5158,-0.5138,-0.5134,-0.512,-0.5096,-0.5096,-0.5073,-0.5067,-0.5057,-0.5041,-0.5044,-0.5029,-0.5026,-0.501,-0.5007,-0.4983,-0.4979,-0.4976,-0.4975,-0.4975,-0.4975,-0.4968,-0.4969,-0.4975,-0.4976,-0.4976,-0.4976,0,-0.5124,-0.5121,-0.5096,-0.5085,-0.5082,-0.5065,-0.5055,-0.5041,-0.5037,-0.5017,-0.5012,-0.5005,-0.4986,-0.4982,-0.496,-0.4958,-0.4929,-0.4931,-0.4933,-0.4933,-0.4915,-0.4917,-0.4861,-0.4853,-0.4902,-0.4901,-0.4901,0,-0.5101,-0.5085,-0.5072,-0.5062,-0.5055,-0.5039,-0.5029,-0.5027,-0.5016,-0.5001,-0.4989,-0.497,-0.4956,-0.4926,-0.4918,-0.4901,-0.4902,-0.4884,-0.4899,-0.4899,-0.49,-0.4901,-0.4899,-0.488,-0.488,-0.4879,-0.4879,0,-0.5058,-0.5058,-0.5043,-0.5028,-0.5015,-0.5003,-0.4991,-0.4983,-0.4979,-0.4967,-0.4948,-0.4937,-0.4914,-0.4896,-0.4878,-0.4871,-0.4874,-0.4874,-0.4869,-0.4868,-0.4869,-0.4867,-0.4924,-0.4875,-0.4875,-0.4876,-0.4876,-0.4876,-0.5028,-0.5014,-0.5003,-0.4987,-0.4978,-0.4967,-0.4953,-0.4947,-0.4932,-0.4914,-0.4914,-0.4893,-0.4881,-0.4858,-0.485,-0.4833,-0.4838,-0.4831,-0.4829,-0.4827,-0.4825,-0.4873,-0.483,-0.483,-0.483,-0.483,-0.483,0,-0.4985,-0.4979,-0.4964,-0.4947,-0.4934,-0.4939,-0.4926,-0.4914,-0.4896,-0.4885,-0.4871,-0.4849,-0.4831,-0.4823,-0.4805,-0.4793,-0.4794,-0.4788,-0.4788,-0.4787,-0.4822,-0.4827,-0.4788,-0.4788,-0.4788,-0.4788,-0.4788,-0.4788,-0.4961,-0.4938,-0.4936,-0.4908,-0.4901,-0.4882,-0.4874,-0.4863,-0.4854,-0.483,-0.4815,-0.481,-0.48,-0.4781,-0.4765,-0.4763,-0.4755,-0.4749,-0.4747,-0.478,-0.4784,-0.4788,-0.4794,-0.4748,-0.4748,-0.4714,-0.4713,-0.4713]}]]